This demonstration page uses our WeatherBlox Daily Observations layout. Learn more.

Left ArrowRight Arrow

41.12389, -100.76542

Hourly Observations for September 28, 2016

Temp ( °F °C ) Dew Point ( °F °C ) Humidity (%) Winds ( mph kmh ) Pressure ( in mb ) Visibility ( mi km ) Precip ( " mm )
12:53 am 00:53 Clear 50 10 44 6.7 80 80 Calm 30.01 1016 10 16 0.00 0.00
1:53 am 01:53 Clear 46 7.8 42 5.6 86 86 NW 3 6 30.01 1016 10 16 0.00 0.00
2:53 am 02:53 Clear 45 7.2 41 5 86 86 NW 6 9 30.02 1017 10 16 0.00 0.00
3:53 am 03:53 Clear 43 6.1 40 4.4 89 89 NNW 5 7 30.03 1017 10 16 0.00 0.00
4:53 am 04:53 Clear 42 5.6 39 3.9 89 89 W 3 6 30.06 1018 10 16 0.00 0.00
5:53 am 05:53 Clear 43 6.1 39 3.9 86 86 Calm 30.08 1019 10 16 0.00 0.00
6:53 am 06:53 Clear 42 5.6 39 3.9 89 89 Calm 30.12 1020 10 16 0.00 0.00
7:53 am 07:53 Sunny 41 5 38 3.3 89 89 Calm 30.18 1022 10 16 0.00 0.00
8:53 am 08:53 Sunny 50 10 45 7.2 83 83 Calm 30.18 1022 10 16 0.00 0.00
9:53 am 09:53 Sunny 59 15 47 8.3 64 64 Calm 30.20 1023 10 16 0.00 0.00
10:53 am 10:53 Sunny 65 18.3 47 8.3 52 52 WNW 3 6 30.21 1023 10 16 0.00 0.00
11:53 am 11:53 Sunny 73 22.8 44 6.7 35 35 ENE 5 7 30.20 1023 10 16 0.00 0.00
12:53 pm 12:53 Sunny 77 25 43 6.1 30 30 N 10 17 30.19 1022 10 16 0.00 0.00
1:53 pm 13:53 Sunny 77 25 42 5.6 29 29 NE 10 17 30.19 1023 10 16 0.00 0.00
2:53 pm 14:53 Sunny 79 26.1 42 5.6 27 27 NE 14 22 30.19 1022 10 16 0.00 0.00
3:53 pm 15:53 Sunny 78 25.6 40 4.4 26 26 ENE 9 15 30.20 1023 10 16 0.00 0.00
4:53 pm 16:53 Sunny 78 25.6 42 5.6 28 28 NE 9 15 30.20 1023 10 16 0.00 0.00
5:53 pm 17:53 Sunny 77 25 41 5 28 28 NE 10 17 30.22 1023 10 16 0.00 0.00
6:53 pm 18:53 Sunny 72 22.2 39 3.9 30 30 NE 9 15 30.24 1024 10 16 0.00 0.00
7:53 pm 19:53 Clear 60 15.6 35 1.7 39 39 NE 8 13 30.28 1025 10 16 0.00 0.00
8:53 pm 20:53 Clear 52 11.1 36 2.2 55 55 ESE 5 7 30.31 1026 10 16 0.00 0.00
9:53 pm 21:53 Clear 51 10.6 34 1.1 52 52 E 6 9 30.32 1027 10 16 0.00 0.00
10:53 pm 22:53 Clear 46 7.8 35 1.7 66 66 E 6 9 30.33 1027 10 16 0.00 0.00
11:53 pm 23:53 Clear 45 7.2 36 2.2 71 71 ENE 5 7 30.34 1027 10 16 0.00 0.00

Powered by AerisWeather